Weather History for KBIX - October, 2012

Change the Weather History Date:

Wednesday, October 17, 2012

  Actual Average Record
Temperature  
Mean Temperature 70 °F -  
Max Temperature 80 °F 79 °F 89 °F (1962)
Min Temperature 59 °F 59 °F 43 °F (1954)
Cooling Degree Days 4    
Growing Degree Days 20 (Base 50)    
Moisture  
Dew Point 63 °F    
Average Humidity 71    
Maximum Humidity 88    
Minimum Humidity 54    
Precipitation  
Precipitation 0.00 in - - ()
Sea Level Pressure  
Sea Level Pressure 29.84 in    
Wind  
Wind Speed 8 mph (SSE)    
Max Wind Speed 16 mph    
Max Gust Speed -    
Visibility 10 miles    
Events      
Averages and records for this station are not official NWS values.
T = Trace of Precipitation, MM = Missing Value Source: NWS Daily Summary

Daily Weather History Graph

Daily Weather History Graph

Search for Another Location

Airport or City:

Trip Planner

Search our weather history database for the weather conditions in past years. The results will help you decide how hot, cold, wet, or windy it might be!

Date:

Astronomy

Oct. 17, 2012 Rise Set
Actual Time 6:59 AM CDT 6:21 PM CDT
Civil Twilight 6:35 AM CDT 6:46 PM CDT
Nautical Twilight 6:07 AM CDT 7:14 PM CDT
Astronomical Twilight 5:39 AM CDT 7:41 PM CDT
Moon 9:21 AM CDT (10/17) 8:10 PM CDT (10/17)
Length of Visible Light 12h 10m
Length of Day
11h 22m
Waxing Crescent, 7% of the Moon is Illuminated
Oct 17
Waxing Crescent
Oct 21
First Quarter
Oct 29
Full
Nov 6
Last Quarter
Nov 13
New

Hourly Weather History & Observations

Time (CDT) Temp. Heat Index Dew Point Humidity Pressure Visibility Wind Dir Wind Speed Gust Speed Precip Events Conditions
12:55 AM 66.2 °F - 54.5 °F 66% 29.88 in 10.0 mi ENE 4.6 mph - N/A   Scattered Clouds
1:55 AM 63.9 °F - 56.8 °F 78% 29.87 in 10.0 mi East 4.6 mph - N/A   Clear
2:55 AM 63.1 °F - 54.7 °F 74% 29.86 in 10.0 mi East 4.6 mph - N/A   Clear
3:55 AM 66.4 °F - 55.9 °F 69% 29.84 in 10.0 mi SE 4.6 mph - N/A   Overcast
4:55 AM 63.7 °F - 58.3 °F 83% 29.85 in 10.0 mi NE 5.8 mph - N/A   Clear
5:55 AM 61.0 °F - 57.4 °F 88% 29.86 in 10.0 mi NE 5.8 mph - N/A   Clear
6:55 AM 59.5 °F - 55.8 °F 87% 29.88 in 10.0 mi ENE 5.8 mph - N/A   Clear
7:55 AM 61.9 °F - 57.0 °F 84% 29.88 in 7.0 mi East 4.6 mph - N/A   Partly Cloudy
8:55 AM 69.8 °F - 60.8 °F 73% 29.90 in 10.0 mi East 5.8 mph - N/A   Clear
9:55 AM 77.0 °F - 62.1 °F 60% 29.90 in 10.0 mi SSE 8.1 mph - N/A   Mostly Cloudy
10:55 AM 79.0 °F - 62.1 °F 56% 29.90 in 10.0 mi South 11.5 mph - N/A   Partly Cloudy
11:55 AM 79.3 °F - 61.7 °F 55% 29.88 in 10.0 mi South 10.4 mph - N/A   Clear
12:55 PM 79.9 °F - 61.7 °F 54% 29.85 in 10.0 mi SSW 12.7 mph - N/A   Clear
1:55 PM 80.1 °F 81.9 °F 64.9 °F 60% 29.82 in 10.0 mi SSW 13.8 mph - N/A   Scattered Clouds
2:01 PM 78.8 °F - 64.4 °F 61% 29.81 in 10.0 mi SSW 13.8 mph - N/A   Mostly Cloudy
2:18 PM 80.6 °F 82.3 °F 64.4 °F 58% 29.81 in 10.0 mi SSW 16.1 mph - N/A   Mostly Cloudy
2:55 PM 80.1 °F 81.8 °F 64.4 °F 59% 29.80 in 10.0 mi SSW 13.8 mph - N/A   Partly Cloudy
3:55 PM 79.2 °F - 64.9 °F 62% 29.80 in 10.0 mi South 13.8 mph - N/A   Clear
4:55 PM 77.9 °F - 66.4 °F 68% 29.79 in 10.0 mi SSW 12.7 mph - N/A   Scattered Clouds
5:55 PM 75.9 °F - 66.0 °F 71% 29.79 in 10.0 mi South 10.4 mph - N/A   Mostly Cloudy
6:55 PM 75.9 °F - 66.9 °F 74% 29.80 in 10.0 mi South 11.5 mph - N/A   Overcast
7:55 PM 75.6 °F - 67.5 °F 76% 29.81 in 10.0 mi South 11.5 mph - N/A   Mostly Cloudy
8:55 PM 75.2 °F - 68.4 °F 79% 29.81 in 10.0 mi South 10.4 mph - N/A   Scattered Clouds
9:55 PM 75.7 °F - 68.9 °F 79% 29.80 in 10.0 mi South 11.5 mph - N/A   Mostly Cloudy
10:55 PM 76.3 °F - 70.2 °F 81% 29.80 in 10.0 mi South 10.4 mph - N/A   Overcast
11:55 PM 75.9 °F - 70.2 °F 82% 29.79 in 10.0 mi South 12.7 mph - N/A   Partly Cloudy